q   3.7923360            (2000.0)            P               Q

z  +0.0008167      Peri.  162.19116     -0.50276592     -0.41805303

 +/-0.0000336      Node   307.33922     +0.63101120     +0.42073124

e   0.9969028      Incl.   72.10853     +0.59080563     -0.80511918

From 133 observations 2004 Nov. 19-2005 Jan. 12.

 

Date/        TT  R.A.(2000) Decl.     Delta   r     Daily motion  Mag.  Moon Age

              h    h  m       。  ,                      ,  / PA 。  m1      。

2005 Jan. 20 18  08 49.92  +05 36.6   3.062  4.013    20.1 / 245  18.0   65  .81

          21 18  08 48.70  +05 28.0   3.062  4.016    20.1 / 245  18.0   54  .88

          22 18  08 47.48  +05 19.5   3.062  4.019    20.1 / 245  18.0   42  .93

          23 18  08 46.26  +05 11.1   3.063  4.022    20.1 / 245  18.0   32  .97

          24 18  08 45.04  +05 02.8   3.064  4.024    20.0 / 246  18.0   23  .99

          25 18  08 43.82  +04 54.5   3.066  4.027    20.0 / 246  18.0   18 1.00

          26 18  08 42.60  +04 46.3   3.067  4.030    19.9 / 246  18.0   20  .98

          27 18  08 41.38  +04 38.2   3.070  4.033    19.9 / 246  18.0   28  .95

          28 18  08 40.17  +04 30.2   3.072  4.036    19.8 / 246  18.0   38  .90

          29 18  08 38.95  +04 22.3   3.075  4.039    19.7 / 247  18.0   49  .84

          30 18  08 37.74  +04 14.4   3.079  4.042    19.6 / 247  18.0   61  .75

          31 18  08 36.54  +04 06.7   3.082  4.045    19.5 / 247  18.0   73  .66

     Feb.  1 18  08 35.34  +03 59.0   3.086  4.048    19.4 / 247  18.0   86  .56

           2 18  08 34.15  +03 51.4   3.091  4.051    19.3 / 247  18.0   99  .45

           3 18  08 32.96  +03 43.9   3.096  4.054    19.1 / 247  18.0  112  .34

           4 18  08 31.78  +03 36.5   3.101  4.057    19.0 / 247  18.0  125  .24

           5 18  08 30.61  +03 29.2   3.107  4.060    18.8 / 248  18.0  138  .15

           6 18  08 29.45  +03 22.0   3.113  4.064    18.7 / 248  18.1  150  .07

           7 18  08 28.29  +03 14.9   3.119  4.067    18.5 / 248  18.1  159  .02

           8 18  08 27.15  +03 07.9   3.126  4.070    18.3 / 248  18.1  158  .00

           9 18  08 26.02  +03 01.0   3.133  4.073    18.1 / 248  18.1  149  .01

          10 18  08 24.90  +02 54.1   3.140  4.076    17.9 / 248  18.1  137  .05

          11 18  08 23.80  +02 47.4   3.148  4.079    17.7 / 248  18.1  124  .11

          12 18  08 22.70  +02 40.8   3.156  4.083    17.5 / 248  18.1  111  .19

          13 18  08 21.62  +02 34.2   3.165  4.086    17.2 / 248  18.1   98  .28

          14 18  08 20.56  +02 27.7   3.173  4.089    17.0 / 248  18.1   86  .37

          15 18  08 19.50  +02 21.4   3.183  4.092    16.8 / 248  18.1   74  .47

          16 18  08 18.47  +02 15.1   3.192  4.095    16.5 / 248  18.1   63  .57

          17 18  08 17.45  +02 08.9   3.202  4.099    16.3 / 248  18.2   52  .66

          18 18  08 16.44  +02 02.8   3.212  4.102    16.0 / 248  18.2   41  .75

          19 18  08 15.45  +01 56.8   3.223  4.105    15.7 / 248  18.2   32  .83

          20 18  08 14.48  +01 50.9   3.233  4.109    15.5 / 248  18.2   25  .89

          21 18  08 13.52  +01 45.1   3.244  4.112    15.2 / 248  18.2   23  .94

          22 18  08 12.59  +01 39.3   3.256  4.115    14.9 / 248  18.2   26  .98

          23 18  08 11.67  +01 33.7   3.267  4.119    14.6 / 248  18.2   33 1.00

          24 18  08 10.77  +01 28.1   3.279  4.122    14.3 / 247  18.2   43 1.00

          25 18  08 09.88  +01 22.6   3.292  4.125    14.0 / 247  18.2   54  .98

          26 18  08 09.02  +01 17.2   3.304  4.129    13.8 / 247  18.3   65  .94

          27 18  08 08.17  +01 11.9   3.317  4.132    13.5 / 247  18.3   77  .88

          28 18  08 07.35  +01 06.6   3.330  4.136    13.2 / 247  18.3   89  .80

     Mar.  1 18  08 06.54  +01 01.4   3.343  4.139    12.9 / 247  18.3  101  .71

NAKANO

         **** Don't distribute anyone except personal use only ****

                (C) Copyright 2005 OAA/ComputingSection

write mail from CFAD0::NAKANO on 2005-01-19 03:46:57(JST.)





    C/2004 X2 (LINEAR)                                                    

T 2004 Aug. 24.16035 TT                                 Nakano

q   3.7937945            (2000.0)            P               Q

                   Peri.  162.17792     -0.50283284     -0.41796707

                   Node   307.34598     +0.63080145     +0.42101253

e   1.0            Incl.   72.12523     +0.59097264     -0.80501676

From 91 observations 2004 Nov. 19-Dec. 19.



NAKANO

         **** Don't distribute anyone except personal use only ****

                (C) Copyright 2005 OAA/ComputingSection

write mail from CFAD0::NAKANO on 2005-01-04 01:58:32(JST).

 









◎C/2004 X2の軌道と予報位置です



 MPEC Y56に長円軌道がありますが,まだ,放物線にもフィットしています.

久万の中村彰正氏の12月16日,上尾の門田健一氏の18日の CCD全光度は,

18.0等でした.



    C/2004 X2 (LINEAR)                                                    

T 2004 Aug. 24.16035 TT                                 Nakano

q   3.7937945            (2000.0)            P               Q

                   Peri.  162.17792     -0.50283284     -0.41796707

                   Node   307.34598     +0.63080145     +0.42101253

e   1.0            Incl.   72.12523     +0.59097264     -0.80501676

From 91 observations 2004 Nov. 19-Dec. 19.

 

Date/        TT  R.A.(2000) Decl.     Delta   r     Daily motion  Mag.  Moon Age

              h    h  m       。  ,                      ,  / PA 。  m1      。

2005 Jan.  1 18  09 11.61  +08 31.4   3.134  3.964    18.1 / 238  18.0   32  .69

           2 18  09 10.58  +08 21.8   3.127  3.966    18.3 / 238  18.0   44  .60

           3 18  09 09.53  +08 12.1   3.121  3.969    18.5 / 239  18.0   57  .50

           4 18  09 08.46  +08 02.6   3.115  3.972    18.7 / 239  18.0   70  .39

           5 18  09 07.38  +07 53.0   3.109  3.974    18.8 / 240  18.0   83  .29

           6 18  09 06.29  +07 43.6   3.104  3.977    19.0 / 240  18.0   97  .19

           7 18  09 05.19  +07 34.1   3.098  3.979    19.1 / 241  18.0  111  .11

           8 18  09 04.07  +07 24.7   3.094  3.982    19.2 / 241  18.0  126  .05

           9 18  09 02.94  +07 15.4   3.089  3.985    19.4 / 241  18.0  140  .01

          10 18  09 01.80  +07 06.1   3.085  3.987    19.5 / 242  18.0  154  .00

          11 18  09 00.64  +06 56.9   3.081  3.990    19.6 / 242  18.0  164  .03

          12 18  08 59.48  +06 47.7   3.078  3.993    19.7 / 242  18.0  163  .08

          13 18  08 58.31  +06 38.6   3.075  3.996    19.8 / 243  18.0  152  .15

          14 18  08 57.13  +06 29.6   3.072  3.998    19.8 / 243  18.0  139  .24

          15 18  08 55.95  +06 20.6   3.070  4.001    19.9 / 243  18.0  126  .34

          16 18  08 54.75  +06 11.7   3.068  4.004    20.0 / 244  18.0  114  .44

          17 18  08 53.56  +06 02.8   3.067  4.007    20.0 / 244  18.0  101  .55

          18 18  08 52.35  +05 54.0   3.065  4.009    20.0 / 244  18.0   89  .64

          19 18  08 51.14  +05 45.3   3.065  4.012    20.1 / 244  18.0   77  .73

          20 18  08 49.93  +05 36.6   3.064  4.015    20.1 / 245  18.0   65  .81

          21 18  08 48.71  +05 28.1   3.064  4.018    20.1 / 245  18.0   54  .88

          22 18  08 47.50  +05 19.6   3.064  4.021    20.1 / 245  18.0   42  .93

          23 18  08 46.28  +05 11.1   3.065  4.024    20.0 / 245  18.0   32  .97

          24 18  08 45.06  +05 02.8   3.066  4.027    20.0 / 246  18.0   23  .99

          25 18  08 43.84  +04 54.5   3.068  4.030    20.0 / 246  18.0   18 1.00

          26 18  08 42.62  +04 46.3   3.070  4.032    19.9 / 246  18.0   20  .98

          27 18  08 41.40  +04 38.2   3.072  4.035    19.9 / 246  18.0   28  .95

          28 18  08 40.18  +04 30.2   3.074  4.038    19.8 / 246  18.0   38  .90

          29 18  08 38.97  +04 22.3   3.077  4.041    19.7 / 247  18.0   49  .84

          30 18  08 37.76  +04 14.4   3.081  4.044    19.6 / 247  18.0   61  .75

          31 18  08 36.56  +04 06.7   3.085  4.047    19.5 / 247  18.0   73  .66

     Feb.  1 18  08 35.36  +03 59.0   3.089  4.050    19.4 / 247  18.0   86  .56

NAKANO

         **** Don't distribute anyone except personal use only ****

                (C) Copyright 2005 OAA/ComputingSection

write mail from CFAD0::NAKANO on 2005-01-03 05:44:09(JST).

 



◎C/2004 X2の軌道と予報位置です



  那賀川の堀寿夫氏と前野拓氏から12月10日の観測が報告されました.彼らの

CCD全光度は,18.4等とのことです.



    C/2004 X2 (LINEAR)                                                    

T 2004 Aug. 24.04430 TT                                 Nakano

q   3.7934633            (2000.0)            P               Q

                   Peri.  162.15495     -0.50260670     -0.41832291

                   Node   307.34537     +0.63068044     +0.42113600

e   1.0            Incl.   72.11290     +0.59129407     -0.80476730

From 29 observations 2004 Nov. 19-Dec. 10.

 

Date/        TT  R.A.(2000) Decl.     Delta   r     Daily motion  Mag.  Moon Age

              h    h  m       。  ,                      ,  / PA 。  m1      。

2004 Dec.  5 18  09 32.57  +13 01.8   3.415  3.902    12.7 / 216  18.1   31  .43

           6 18  09 32.06  +12 51.6   3.402  3.904    12.8 / 217  18.1   44  .33

           7 18  09 31.53  +12 41.4   3.389  3.906    13.0 / 218  18.1   57  .23

           8 18  09 30.97  +12 31.2   3.376  3.908    13.2 / 220  18.1   71  .15

           9 18  09 30.40  +12 21.0   3.364  3.910    13.4 / 221  18.1   85  .08

          10 18  09 29.81  +12 10.8   3.351  3.912    13.6 / 222  18.1  100  .03

          11 18  09 29.19  +12 00.6   3.339  3.915    13.8 / 223  18.0  115  .00

          12 18  09 28.55  +11 50.5   3.327  3.917    14.0 / 224  18.0  130  .01

          13 18  09 27.89  +11 40.3   3.315  3.919    14.2 / 225  18.0  144  .04

          14 18  09 27.21  +11 30.2   3.303  3.921    14.4 / 226  18.0  159  .11

          15 18  09 26.51  +11 20.1   3.292  3.923    14.6 / 226  18.0  170  .19

          16 18  09 25.79  +11 10.0   3.281  3.926    14.9 / 227  18.0  167  .29

